Starlink 31947

operational
NORAD ID: 59835 Int'l Des: 2024-097 Owner: SPXS Country: US Constellation: starlink
LEOCIRCULAR

About Starlink 31947

Description loading...

Live Position

Loading 3D Globe...

Upcoming Passes

Altitude History

Altitude vs Time

uPlot chart will show altitude changes over time

Two-Line Element Set

1 59835U 24097A 26034.58596189 .00001300 00000-0 56762-4 0 9992
2 59835 42.9993 106.7375 0001541 176.2622 183.8241 15.27576405 96705
Epoch: Feb 3, 2026 • Age: 17 hours

Current Status

Altitude 495.8 km
Velocity 7.62 km/s
Sub-Earth Point -40.99°S, 155.28°E
Launch Date May 23, 2024
Age 1.7 years
Type internet

Technical Details

Classification Payload
Mass 730.00 kg
Dry Mass 700.00 kg
Total Mass 730.00 kg
Length 0.30 m
Diameter 4.10 m
Span 29.00 m
Shape Box + pan
Manufacturer SPXS
Bus Type Starlink V2M
Phase Status In Orbit
Owner/State SPXS/US

Large Constellations

Loading constellations...